Regional Weather Roundup
Issued by NWS Grand Forks, ND

Home | Current Version | Previous Version | Graphics & Text | Print | Product List | Glossary On
Versions: 1 2 3 4 5 6 7 8 9 10 11 12 13 14 15 16 17 18 19 20 21 22 23 24 25 26 27 28 29 30 31 32 33 34 35 36 37 38 39 40 41 42 43 44 45 46 47 48 49 50
000
ASUS43 KFGF 061231
RWRFGF
PRAIRIE TO PINES  WEATHER ROUNDUP
NATIONAL WEATHER SERVICE EASTERN NORTH DAKOTA/GRAND FORKS ND
700 AM CDT MON JUL 06 2015

 **SATELLITE DATA USED TO AUGMENT SKY COVER AT AUTOMATED STATIONS**
 *****  WEATHER ACROSS EASTERN NORTH DAKOTA  *****

CITY           SKY/WX    TMP DP  RH WIND       PRES   REMARKS
GRAND FORKS    PTSUNNY   55  51  86 N12       30.04R
6HR MIN TEMP:  55; 6HR MAX TEMP:  63;

GRAND FRKS AFB MOSUNNY   55  49  80 N12       30.05R
GRAND FRKS NWS   N/A     54 N/A N/A N9          N/A
DEVILS LAKE    PTSUNNY   55  50  82 N7        30.07R
6HR MIN TEMP:  55; 6HR MAX TEMP:  64;

FARGO          CLOUDY    60  53  77 N16G24    30.00R HAZE
WAHPETON ARPT    N/A     63  57  82 N16       29.96R
$$

 ***** WEATHER ACROSS CENTRAL AND WESTERN NORTH DAKOTA  *****

CITY           SKY/WX    TMP DP  RH WIND       PRES   REMARKS
BISMARCK       CLOUDY    60  54  80 N7        30.10R
6HR MIN TEMP:  60; 6HR MAX TEMP:  66; 6HR PCP: TRACE;

MINOT          PTCLDY    53  50  89 NW5       30.13R SMOKE
6HR MIN TEMP:  50; 6HR MAX TEMP:  59;

JAMESTOWN      CLOUDY    59  52  77 NE14      30.05R HAZE
6HR MIN TEMP:  58; 6HR MAX TEMP:  64;

MINOT AFB      PTCLDY    53  53 100 NW5       30.12R FOG
GARRISON         N/A     56  52  86 N3        30.12R
WILLISTON      CLOUDY    57  52  83 N7        30.18R
6HR MIN TEMP:  56; 6HR MAX TEMP:  62;

DICKINSON      CLOUDY    55  52  89 NW6       30.15R
6HR MIN TEMP:  52; 6HR MAX TEMP:  59;

HETTINGER      CLOUDY    57  52  83 N5        30.16R
6HR MIN TEMP:  57; 6HR MAX TEMP:  60;

$$

 *****  OTHER AIRPORT OBSERVATIONS IN OUR AREA  *****

CITY           SKY/WX    TMP DP  RH WIND       PRES   REMARKS
WALHALLA       FAIR      54  50  87 MISG      30.10R
GRAFTON AIRPOR FAIR      54  50  87 N9        30.08R
VALLEY CITY AR FAIR      57  55  94 N10G16    30.04R FOG
CANDO          CLOUDY    54  50  87 N10G16    30.12R
CAVALIER APRT  PTSUNNY   54  48  82 N6        30.09R
GWINNER          N/A     63  59  88 N16G23    30.01R
SHEYENNE NWR     N/A     62  58  86 N7        29.95S
ROLLA          CLOUDY    50  50 100 NW5       30.14R
 ***** THE ABOVE OBSERVATIONS ARE NON NWS ARE NOT QUALITY
       CONTROLLED AND MAY MIS-REPORT RAIN FOR SNOW...
$$

  *****  WEATHER ACROSS NORTHERN MINNESOTA  *****

CITY           SKY/WX    TMP DP  RH WIND       PRES   REMARKS
FLAG ISLAND    MOSUNNY   52  46  82 NW18      29.99R
WARROAD        PTSUNNY   52  46  82 NW8       30.02R
ROSEAU         PTSUNNY   54  46  76 N9        30.03R
HALLOCK        MOSUNNY   52  48  87 N9        30.06R
THF RVR FALLS  MOSUNNY   55  46  71 N14       30.01R
6HR MIN TEMP:  55; 6HR MAX TEMP:  63;

BAUDETTE       PTSUNNY   55  44  66 NW16G24   29.97R
6HR MIN TEMP:  55; 6HR MAX TEMP:  64;

WASKISH        PTSUNNY   55  52  88 N8        29.97R
CROOKSTON      MOSUNNY   57  54  88 N15       30.03R
STEPHEN NDAWN    N/A     54  50  87 N9          N/A
GREENBUSH NDAW   N/A     52  50  93 NW6         N/A
$$
  *****  WEATHER ACROSS CENTRAL AND WEST MINNESOTA  *****

CITY           SKY/WX    TMP DP  RH WIND       PRES   REMARKS
FOSSTON        PTSUNNY   54  50  87 N12       30.00R
BEMIDJI        CLOUDY    59  56  91 N10G18    29.97R FOG
PARK RAPIDS    CLOUDY    65  59  81 N9        29.94R HAZE
6HR MIN TEMP:  65; 6HR MAX TEMP:  69;

ELBOW LAKE     DRIZZLE   64  63  94 N9        29.92R
6HR MIN TEMP:  65; 6HR MAX TEMP:  70;

WADENA         DRIZZLE   63  61  94 N8        29.93R
DETROIT LAKES  CLOUDY    63  59  88 N10G20    29.98R FOG
MOORHEAD       CLOUDY    61  57  88 N16       29.99R FOG
FERGUS FALLS   CLOUDY    64  63  94 N7        29.94R FOG
MORRIS MN      CLOUDY    66  64  94 N12G18    29.89R FOG
STAPLES        DRIZZLE   63  61  94 N8        29.91S
$$
  *****  WEATHER ELSEWHERE ACROSS MINNESOTA  *****

CITY           SKY/WX    TMP DP  RH WIND       PRES   REMARKS
DULUTH         LGT RAIN  65  61  87 N8        29.86R FOG
6HR MIN TEMP:  65; 6HR MAX TEMP:  67; 6HR PCP:  0.04;

INTRNTL FALLS  CLOUDY    58  55  90 NW13      29.93R FOG
6HR MIN TEMP:  52; 6HR MAX TEMP:  58;

ELY            CLOUDY    59  57  94 CALM      29.90S FOG
CLOQUET        LGT RAIN  63  61  94 N6        29.86R
WHEATON        CLOUDY    61  59  94 NW13      29.95R FOG
BRAINERD       LGT RAIN  63  59  87 N12       29.90R FOG
6HR MIN TEMP:  64; 6HR MAX TEMP:  69; 6HR PCP: TRACE;

HIBBING        CLOUDY    60  58  92 N3        29.90R
6HR MIN TEMP:  60; 6HR MAX TEMP:  64; 6HR PCP: TRACE;

ALEXANDRIA     LGT RAIN  66  61  84 N14       29.91S
6HR MIN TEMP:  66; 6HR MAX TEMP:  70; 6HR PCP: TRACE;

SAINT CLOUD    RAIN      68  67  96 N8        29.83R VSB 1
6HR MIN TEMP:  68; 6HR MAX TEMP:  70; 6HR PCP:  0.20;

MINNEAPOLIS    RAIN      70  68  93 E8        29.79F FOG
6HR MIN TEMP:  69; 6HR MAX TEMP:  77; 6HR PCP:  2.59;

$$

  *****  WEATHER ACROSS SOUTH DAKOTA  *****

CITY           SKY/WX    TMP DP  RH WIND       PRES   REMARKS
SIOUX FALLS    LGT RAIN  68  68 100 NW5       29.88R FOG
6HR MIN TEMP:  68; 6HR MAX TEMP:  74; 6HR PCP:  1.58;

BROOKINGS      CLOUDY    66  63  88 N14       29.89R
WATERTOWN      CLOUDY    63  60  90 N14       29.91R FOG
6HR MIN TEMP:  63; 6HR MAX TEMP:  68; 6HR PCP:  0.11;

HURON          CLOUDY    62  55  77 N14       29.93R HAZE
6HR MIN TEMP:  61; 6HR MAX TEMP:  70; 6HR PCP:  0.53;

SISSETON         N/A     62  60  93 N12       29.93R
ABERDEEN       CLOUDY    65  61  87 N14       29.98R FOG
6HR MIN TEMP:  65; 6HR MAX TEMP:  70; 6HR PCP:  0.09;

MITCHELL       CLOUDY    67  64  90 N8        29.93R FOG
PIERRE         CLOUDY    63  60  90 N14       30.03R FOG
6HR MIN TEMP:  63; 6HR MAX TEMP:  66; 6HR PCP:  0.02;

MOBRIDGE       MOCLDY    63  61  93 N10       30.05R FOG
RAPID CITY     CLOUDY    59  55  87 N13       30.17R FOG
6HR MIN TEMP:  59; 6HR MAX TEMP:  61; 6HR PCP: TRACE;

$$

  *****  SOME WEATHER IN NEARBY STATES *****

CITY           SKY/WX    TMP DP  RH WIND       PRES   REMARKS
GLASGOW MT     CLEAR     55  51  86 NW6       30.19R
6HR MIN TEMP:  54; 6HR MAX TEMP:  59; 6HR PCP:  0.05;

GREAT FALLS MT MOCLDY    47  46  97 CALM      30.26S
6HR MIN TEMP:  46; 6HR MAX TEMP:  50;

CHEYENNE WY    LGT RAIN  55  54  96 N8        30.24S FOG
6HR MIN TEMP:  55; 6HR MAX TEMP:  58; 6HR PCP:  0.04;

SCOTTSBLUFF NE CLOUDY    60  57  89 N13       30.17R FOG
6HR MIN TEMP:  60; 6HR MAX TEMP:  63; 6HR PCP:  0.10;

OMAHA NE       LGT RAIN  73  71  93 N9        29.86S
6HR MIN TEMP:  73; 6HR MAX TEMP:  81; 6HR PCP:  0.02;

DES MOINES IA  TSTM      77  72  84 W9        29.86R
6HR MIN TEMP:  76; 6HR MAX TEMP:  79; 6HR PCP:  0.08;

DAVENPORT IA   CLOUDY    72  68  87 S13       29.91F FOG
6HR MIN TEMP:  70; 6HR MAX TEMP:  72;

CHICAGO IL     SUNNY     69  65  86 S6        30.00R FOG
6HR MIN TEMP:  64; 6HR MAX TEMP:  70;

EAU CLAIRE WI  RAIN      68  67  96 NE13      29.82F FOG
6HR MIN TEMP:  68; 6HR MAX TEMP:  73; 6HR PCP:  1.20;

LA CROSSE WI   CLOUDY    74  67  78 S15       29.83S HAZE
6HR MIN TEMP:  74; 6HR MAX TEMP:  75;

$$

  *****  SOME NATIONAL WEATHER *****

CITY           SKY/WX    TMP DP  RH WIND       PRES   REMARKS
LA GUARDIA NY  PTSUNNY   72  66  81 NE6       30.16R
6HR MIN TEMP:  71; 6HR MAX TEMP:  74;

RALEIGH NC     PTSUNNY   74  71  91 S6        30.12S
6HR MIN TEMP:  70; 6HR MAX TEMP:  74;

ATLANTA GA     CLOUDY    72  69  90 NW5       30.16R FOG
6HR MIN TEMP:  71; 6HR MAX TEMP:  73;

NEW ORLEANS LA CLOUDY    77  72  84 CALM      30.15R
6HR MIN TEMP:  74; 6HR MAX TEMP:  77;

OKLAHOMA CITY  MOCLDY    75  71  87 S12       29.95R
6HR MIN TEMP:  75; 6HR MAX TEMP:  79;

ALBUQUERQUE NM MOCLDY    67  60  78 SW5       30.14R
6HR MIN TEMP:  67; 6HR MAX TEMP:  70; 6HR PCP: TRACE;

SALT LAKE CITY PTCLDY    70  56  61 SE8       30.08R
6HR MIN TEMP:  68; 6HR MAX TEMP:  76;




USA.gov is the U.S. government's official web portal to all federal, state and local government web resources and services.